Total_Precipitation_Accumulation
0.32 0.69 0.95 0.84 0.77 0.78 0.74 0.73 0.74 0.63 0.57 0.60 0.55 0.49 0.53 0.56 0.59 0.53 0.54 0.53 0.44 0.39 0.41 0.39 0.34 0.37 0.40 0.51 0.63 0.79 1.15 1.58 1.77 1.66 1.64 1.67 1.74 1.71 1.61 1.57 1.54 1.58 1.58 1.58
0.38 0.48 0.39 0.43 0.48 0.60 0.69 0.74 0.76 0.66 0.48 0.48 0.48 0.42 0.43 0.49 0.50 0.46 0.43 0.46 0.41 0.36 0.32 0.30 0.27 0.31 0.35 0.53 0.68 0.80 1.09 1.54 1.74 1.85 1.97 2.18 2.34 2.21 2.06 2.04 1.98 2.06 2.07 2.22
0.33 0.29 0.23 0.35 0.52 0.63 0.68 0.71 0.70 0.64 0.49 0.44 0.43 0.45 0.40 0.45 0.40 0.38 0.38 0.39 0.35 0.28 0.26 0.27 0.26 0.30 0.34 0.47 0.60 0.73 0.94 1.24 1.58 1.84 2.11 2.39 2.61 2.57 2.44 2.27 2.25 2.31 2.36 2.51
0.33 0.27 0.27 0.35 0.44 0.54 0.70 0.48 0.44 0.44 0.58 0.59 0.44 0.66 0.47 0.46 0.42 0.38 0.38 0.37 0.36 0.30 0.29 0.32 0.29 0.32 0.36 0.43 0.53 0.69 0.90 1.13 1.37 1.60 2.01 2.44 2.72 2.80 2.70 2.60 2.57 2.52 2.52 2.58
0.31 0.25 0.28 0.33 0.34 0.41 0.52 0.41 0.41 0.43 0.53 0.49 0.35 0.48 0.46 0.39 0.41 0.37 0.34 0.33 0.33 0.31 0.32 0.36 0.36 0.39 0.44 0.48 0.53 0.67 0.83 1.05 1.28 1.51 1.85 2.24 2.51 2.72 2.85 2.68 2.55 2.57 2.59 2.62
0.26 0.20 0.21 0.27 0.31 0.34 0.41 0.44 0.44 0.45 0.52 0.56 0.28 0.40 0.52 0.37 0.33 0.34 0.30 0.28 0.29 0.32 0.38 0.42 0.52 0.57 0.58 0.54 0.59 0.68 0.80 0.97 1.12 1.24 1.44 1.66 2.01 2.24 2.57 2.57 2.50 2.62 2.59 2.51
0.30 0.26 0.22 0.24 0.31 0.34 0.40 0.62 0.81 0.81 0.77 0.52 0.22 0.37 0.51 0.37 0.30 0.31 0.32 0.29 0.30 0.34 0.40 0.49 0.64 0.71 0.73 0.63 0.59 0.63 0.80 0.88 0.95 1.03 1.11 1.25 1.50 1.66 2.03 2.35 2.32 2.24 2.28 2.33
0.34 0.34 0.21 0.21 0.28 0.32 0.34 0.54 0.85 0.96 0.84 0.54 0.37 0.54 0.58 0.42 0.34 0.31 0.30 0.33 0.37 0.42 0.48 0.66 0.83 0.89 0.88 0.76 0.68 0.69 0.81 0.88 0.90 0.95 0.96 1.04 1.16 1.26 1.44 1.66 1.77 1.80 1.84 2.06
0.35 0.30 0.19 0.20 0.20 0.22 0.30 0.36 0.42 0.61 0.58 0.60 0.58 0.66 0.59 0.40 0.38 0.37 0.40 0.45 0.56 0.64 0.69 0.82 0.98 1.06 0.97 0.85 0.75 0.77 0.85 0.97 0.96 0.99 1.00 1.08 1.10 1.10 1.20 1.24 1.38 1.56 1.60 1.65
0.36 0.34 0.22 0.21 0.23 0.21 0.21 0.28 0.44 0.65 0.83 0.85 0.69 0.70 0.68 0.56 0.53 0.50 0.54 0.60 0.71 0.82 0.89 0.98 1.13 1.17 1.02 0.88 0.79 0.79 0.86 0.97 1.14 1.26 1.22 1.18 1.23 1.29 1.49 1.51 1.36 1.34 1.50 1.55
0.47 0.47 0.28 0.25 0.24 0.24 0.26 0.36 0.50 0.68 0.70 0.97 1.08 1.00 0.79 0.71 0.70 0.73 0.76 0.80 0.87 0.99 1.00 0.99 1.09 1.15 1.05 0.87 0.79 0.77 0.80 0.89 1.03 1.07 1.12 1.10 1.16 1.27 1.53 1.73 1.67 1.49 1.47 1.49
0.45 0.60 0.43 0.29 0.27 0.28 0.35 0.46 0.67 1.02 0.97 0.89 1.09 1.08 0.78 0.69 0.73 0.74 0.74 0.74 0.79 0.90 0.90 0.94 0.98 0.95 0.87 0.74 0.67 0.65 0.67 0.77 0.91 0.91 0.95 1.01 1.03 1.12 1.24 1.35 1.36 1.29 1.20 1.17
0.59 0.80 0.78 0.63 0.59 0.47 0.53 0.55 0.64 0.83 0.95 0.98 1.12 1.09 0.73 0.65 0.60 0.61 0.64 0.68 0.70 0.70 0.70 0.71 0.73 0.71 0.71 0.72 0.70 0.64 0.64 0.71 0.80 0.85 0.94 1.01 0.99 0.99 1.00 1.01 0.95 0.99 0.99 1.04
0.60 0.68 0.76 0.81 0.78 0.73 0.70 0.59 0.55 0.76 1.05 0.97 0.93 0.88 0.70 0.62 0.58 0.60 0.62 0.63 0.66 0.58 0.51 0.52 0.55 0.59 0.66 0.69 0.70 0.67 0.61 0.67 0.78 0.94 1.02 1.08 1.08 1.06 1.04 1.02 0.97 0.98 0.98 1.01
0.49 0.49 0.39 0.36 0.38 0.50 0.54 0.47 0.46 0.56 0.66 0.82 0.78 0.73 0.60 0.57 0.61 0.64 0.62 0.57 0.54 0.47 0.41 0.41 0.43 0.48 0.51 0.55 0.59 0.63 0.58 0.61 0.69 0.83 0.95 1.01 1.07 1.11 1.04 0.94 0.90 0.94 0.91 0.89
0.37 0.41 0.32 0.27 0.27 0.36 0.43 0.42 0.43 0.43 0.47 0.58 0.63 0.62 0.49 0.45 0.44 0.47 0.45 0.39 0.40 0.40 0.34 0.31 0.33 0.36 0.38 0.38 0.42 0.44 0.51 0.64 0.66 0.73 0.84 1.03 1.10 1.02 0.94 0.84 0.84 0.85 0.82 0.81
0.34 0.44 0.52 0.41 0.32 0.37 0.60 0.57 0.57 0.59 0.53 0.53 0.47 0.38 0.25 0.25 0.27 0.32 0.33 0.32 0.36 0.35 0.30 0.28 0.29 0.30 0.31 0.34 0.39 0.43 0.51 0.60 0.60 0.66 0.82 1.01 1.01 0.92 0.87 0.88 0.90 0.85 0.82 0.82
0.29 0.46 0.64 0.50 0.50 0.80 0.91 0.65 0.62 0.58 0.38 0.25 0.18 0.16 0.15 0.21 0.20 0.19 0.22 0.24 0.28 0.27 0.23 0.23 0.23 0.24 0.26 0.29 0.34 0.38 0.43 0.45 0.48 0.56 0.68 0.85 0.86 0.84 0.89 0.89 0.84 0.78 0.72 0.70
0.28 0.49 0.71 0.60 0.61 0.76 0.70 0.46 0.39 0.39 0.29 0.13 0.10 0.11 0.13 0.15 0.15 0.13 0.14 0.15 0.16 0.16 0.14 0.14 0.16 0.18 0.19 0.18 0.21 0.24 0.26 0.29 0.33 0.43 0.54 0.66 0.68 0.73 0.75 0.72 0.74 0.71 0.66 0.65
0.42 0.55 0.80 0.73 0.84 0.79 0.42 0.24 0.22 0.32 0.40 0.15 0.11 0.11 0.09 0.09 0.13 0.10 0.08 0.08 0.09 0.09 0.08 0.08 0.09 0.13 0.16 0.14 0.15 0.16 0.20 0.23 0.25 0.34 0.44 0.55 0.59 0.60 0.62 0.67 0.70 0.70 0.66 0.64
0.46 0.57 0.67 0.71 0.91 0.71 0.33 0.21 0.25 0.41 0.49 0.23 0.14 0.11 0.08 0.07 0.07 0.06 0.06 0.06 0.07 0.07 0.06 0.07 0.07 0.12 0.15 0.15 0.13 0.12 0.15 0.19 0.22 0.26 0.35 0.42 0.49 0.55 0.64 0.72 0.73 0.75 0.72 0.68
0.54 0.59 0.58 0.66 0.83 0.75 0.36 0.33 0.41 0.41 0.28 0.21 0.16 0.12 0.09 0.06 0.04 0.04 0.04 0.04 0.05 0.06 0.05 0.06 0.07 0.12 0.14 0.15 0.13 0.11 0.13 0.18 0.20 0.20 0.26 0.37 0.46 0.54 0.64 0.76 0.81 0.78 0.76 0.75
0.56 0.62 0.65 0.73 0.83 0.56 0.38 0.40 0.37 0.31 0.26 0.17 0.11 0.09 0.08 0.06 0.04 0.03 0.03 0.04 0.05 0.06 0.06 0.06 0.08 0.11 0.10 0.12 0.13 0.12 0.14 0.16 0.15 0.17 0.22 0.29 0.34 0.37 0.47 0.58 0.70 0.75 0.74 0.72
0.39 0.39 0.49 0.60 0.52 0.34 0.32 0.33 0.28 0.25 0.20 0.11 0.08 0.06 0.05 0.06 0.05 0.04 0.03 0.03 0.04 0.05 0.06 0.07 0.09 0.12 0.11 0.10 0.12 0.12 0.14 0.14 0.15 0.18 0.22 0.23 0.26 0.27 0.31 0.45 0.52 0.56 0.62 0.66
0.33 0.39 0.45 0.52 0.47 0.34 0.28 0.29 0.27 0.24 0.17 0.11 0.09 0.07 0.06 0.06 0.06 0.04 0.03 0.04 0.04 0.04 0.05 0.07 0.09 0.11 0.11 0.11 0.11 0.13 0.14 0.15 0.16 0.18 0.19 0.20 0.22 0.24 0.27 0.34 0.44 0.50 0.55 0.59
0.27 0.37 0.51 0.56 0.48 0.44 0.29 0.25 0.22 0.20 0.17 0.13 0.11 0.10 0.10 0.10 0.09 0.07 0.05 0.04 0.05 0.06 0.06 0.09 0.09 0.09 0.11 0.10 0.10 0.13 0.15 0.15 0.20 0.22 0.20 0.19 0.20 0.24 0.26 0.30 0.36 0.39 0.42 0.44